Weather History for Dayton Wright, OH

Change the Weather History Date:

Tuesday, May 6, 2014

  Actual Average (KFFO) Record (KFFO)
Temperature  
Mean Temperature 60 °F -  
Max Temperature 72 °F 70 °F 86 °F (2000)
Min Temperature 48 °F 48 °F 37 °F (2005)
Degree Days  
Heating Degree Days 5    
Growing Degree Days 10 (Base 50)    
Moisture  
Dew Point 42 °F    
Average Humidity 48    
Maximum Humidity 71    
Minimum Humidity 38    
Precipitation  
Precipitation 0.00 in - - ()
Sea Level Pressure  
Sea Level Pressure 29.94 in    
Wind  
Wind Speed 9 mph (ENE)    
Max Wind Speed 13 mph    
Max Gust Speed 22 mph    
Visibility 10 miles    
Events      
Averages and records for this station are not official NWS values.
T = Trace of Precipitation, MM = Missing Value Source: NWS Daily Summary

Daily Weather History Graph

Daily Weather History Graph

Search for Another Location

Airport:

Trip Planner

Search our weather history database for the weather conditions in past years. The results will help you decide how hot, cold, wet, or windy it might be!

Date:

Astronomy

May. 06, 2014 Rise Set
Actual Time 6:31 AM EDT 8:35 PM EDT
Civil Twilight 6:02 AM EDT 9:05 PM EDT
Nautical Twilight 5:26 AM EDT 9:41 PM EDT
Astronomical Twilight 4:47 AM EDT 10:21 PM EDT
Moon 12:46 PM EDT (5/6) 1:54 AM EDT (5/6)
Length of Visible Light 15h 03m
Length of Day
14h 03m
Waxing Crescent, 46% of the Moon is Illuminated
May 6
Waxing Crescent
May 6
First Quarter
May 14
Full
May 21
Last Quarter
May 28
New

Hourly Weather History & Observations

Time (EDT) Temp. Dew Point Humidity Pressure Visibility Wind Dir Wind Speed Gust Speed Precip Events Conditions
12:53 AM 48.9 °F 37.0 °F 64% 29.91 in 10.0 mi NE 8.1 mph - N/A   Clear
2:53 AM 48.9 °F 37.9 °F 66% 29.91 in 10.0 mi NE 9.2 mph - N/A   Mostly Cloudy
3:53 AM 50.0 °F 37.0 °F 61% 29.91 in 10.0 mi NE 9.2 mph - N/A   Overcast
7:53 AM 48.9 °F 39.9 °F 71% 29.97 in 10.0 mi East 8.1 mph - N/A   Mostly Cloudy
8:53 AM 53.1 °F 39.9 °F 61% 29.98 in 10.0 mi East 12.7 mph - N/A   Scattered Clouds
10:53 AM 59.0 °F 39.0 °F 48% 29.99 in 10.0 mi ENE 11.5 mph 21.9 mph N/A   Clear
11:53 AM 62.1 °F 39.9 °F 44% 29.99 in 10.0 mi East 11.5 mph - N/A   Clear
12:53 PM 64.9 °F 42.1 °F 43% 29.97 in 10.0 mi ENE 12.7 mph - N/A   Clear
1:53 PM 66.9 °F 43.0 °F 42% 29.96 in 10.0 mi East 11.5 mph - N/A   Clear
2:53 PM 69.1 °F 43.0 °F 39% 29.95 in 10.0 mi ESE 9.2 mph - N/A   Clear
3:53 PM 70.0 °F 44.1 °F 39% 29.93 in 10.0 mi East 9.2 mph - N/A   Clear
4:53 PM 71.1 °F 45.0 °F 39% 29.91 in 10.0 mi East 11.5 mph - N/A   Clear
5:53 PM 72.0 °F 45.0 °F 38% 29.92 in 10.0 mi East 8.1 mph - N/A   Clear
6:53 PM 70.0 °F 44.1 °F 39% 29.92 in 10.0 mi East 10.4 mph - N/A   Clear
7:53 PM 69.1 °F 44.1 °F 40% 29.92 in 10.0 mi East 8.1 mph - N/A   Clear
8:53 PM 64.9 °F 44.1 °F 47% 29.93 in 10.0 mi ENE 5.8 mph - N/A   Clear
9:53 PM 63.0 °F 43.0 °F 48% 29.94 in 10.0 mi ENE 6.9 mph - N/A   Clear
10:53 PM 64.0 °F 41.0 °F 43% 29.90 in 10.0 mi East 12.7 mph - N/A   Clear
11:53 PM 62.1 °F 41.0 °F 46% 29.94 in 10.0 mi East 5.8 mph - N/A   Clear